User: anonymous   Login
Location: Unspecified
(0.0000°N, 0.0000°E)
Time: 20:08:08
(UTC+00:00)
Language:

Explorer 11/Cluster Stage 4 - Orbit

View from above orbital plane
View from above orbital plane
View from above satellite
View from above satellite

Ground track
Ground track

The orbit data is extracted from the following two-line orbital elements,

1 00107U 61013A   14353.23494883  .00002744  00000-0  36118-3 0  2033
2 00107 028.7891 343.3533 0558831 121.3966 342.5576 14.05969440682625
Epoch (UTC): 19 December 2014 05:38:19
Eccentricity: 0.0558831
inclination: 28.7891°
perigee height: 468 km
apogee height: 1278 km
right ascension of ascending node: 343.3533°
argument of perigee: 121.3966°
revolutions per day: 14.05969440
mean anomaly at epoch: 342.5576°
orbit number at epoch: 68262

The dashed part of the orbit path shows where the satellite is in the earth's shadow,  

DLR